Location: Lake Almanor
(40.2485°N, 121.1442°W)
Time: 07:26:11
(UTC-08:00)

STARLINK-1124 - Pass Details

Date: 29 January 2020
Orbit: 348 x 351 km, 53.0° (Epoch: 18 February)

Event Time Altitude Azimuth Distance (km) Brightness Sun altitude
Rises 18:51:30 0° 314° (NW) 2,165 7.2 -17.7°
Reaches altitude 10° 18:53:36 10° 324° (NW) 1,319 5.9 -18.1°
Enters shadow 18:55:28 29° 353° (N) 689 4.1 -18.5°
